Time,TemperatureF,DewpointF,PressureIn,WindDirection,WindDirectionDegrees,WindSpeedMPH,WindSpeedGustMPH,Humidity,HourlyPrecipIn,Conditions,Clouds,dailyrainin,SolarRadiationWatts/m^2,SoftwareType,DateUTC
2017-03-23 00:01:00,24.4,-1.8,30.46,North,5,12.1,25.0,31,0.00,,,0.00,0.0,meteobridge,2017-03-23 04:01:00,
2017-03-23 00:06:00,24.3,-1.3,30.46,North,6,10.1,20.0,32,0.00,,,0.00,0.0,meteobridge,2017-03-23 04:06:00,
2017-03-23 00:11:00,24.4,-1.1,30.47,NNW,344,8.9,19.0,32,0.00,,,0.00,0.0,meteobridge,2017-03-23 04:11:00,
2017-03-23 00:16:00,24.4,-1.1,30.47,NNE,23,4.9,22.0,32,0.00,,,0.00,0.0,meteobridge,2017-03-23 04:16:00,
2017-03-23 00:21:00,24.4,-1.1,30.47,NNE,15,10.1,15.0,32,0.00,,,0.00,0.0,meteobridge,2017-03-23 04:21:00,
2017-03-23 00:26:00,24.4,-0.6,30.47,NNW,344,10.1,16.0,33,0.00,,,0.00,0.0,meteobridge,2017-03-23 04:26:00,
2017-03-23 00:31:00,24.4,-0.6,30.47,NW,311,8.9,12.0,33,0.00,,,0.00,0.0,meteobridge,2017-03-23 04:31:00,
2017-03-23 00:36:00,24.3,-0.8,30.47,NNW,332,17.0,19.0,33,0.00,,,0.00,0.0,meteobridge,2017-03-23 04:36:00,
2017-03-23 00:41:00,24.3,0.0,30.47,NNW,339,6.9,19.0,34,0.00,,,0.00,0.0,meteobridge,2017-03-23 04:41:00,
2017-03-23 00:46:00,24.3,0.0,30.47,NNW,331,6.9,16.0,34,0.00,,,0.00,0.0,meteobridge,2017-03-23 04:46:00,
2017-03-23 00:52:00,24.1,-0.2,30.47,NW,325,10.1,16.0,34,0.00,,,0.00,0.0,meteobridge,2017-03-23 04:52:00,
2017-03-23 00:57:00,24.1,0.3,30.47,NNW,344,11.0,20.0,35,0.00,,,0.00,0.0,meteobridge,2017-03-23 04:57:00,
2017-03-23 01:02:00,23.9,0.1,30.47,NNE,25,10.1,17.0,35,0.00,,,0.00,0.0,meteobridge,2017-03-23 05:02:00,
2017-03-23 01:07:00,23.9,0.9,30.47,NNW,344,6.9,11.0,36,0.00,,,0.00,0.0,meteobridge,2017-03-23 05:07:00,
2017-03-23 01:12:00,24.1,1.0,30.47,NNW,344,6.9,12.0,36,0.00,,,0.00,0.0,meteobridge,2017-03-23 05:12:00,
2017-03-23 01:17:00,23.9,1.4,30.47,NNW,344,15.0,20.0,37,0.00,,,0.00,0.0,meteobridge,2017-03-23 05:17:00,
2017-03-23 01:22:00,23.9,1.4,30.47,NW,315,15.0,16.0,37,0.00,,CLR,0.00,,VWS V15.00,2017-03-23 05:22:00,
2017-03-23 01:27:00,23.8,1.9,30.48,NW,323,11.0,16.0,38,0.00,,CLR,0.00,,VWS V15.00,2017-03-23 05:27:00,
2017-03-23 01:32:00,23.8,2.5,30.48,NW,326,17.0,18.0,39,0.00,,CLR,0.00,,VWS V15.00,2017-03-23 05:32:00,
2017-03-23 01:37:00,23.8,2.5,30.48,NW,306,9.0,11.0,39,0.00,,CLR,0.00,,VWS V15.00,2017-03-23 05:37:00,
2017-03-23 01:42:00,23.9,3.0,30.48,North,2,12.1,18.0,40,0.00,,,0.00,0.0,meteobridge,2017-03-23 05:42:00,
2017-03-23 01:47:00,23.7,2.3,30.47,NW,317,13.0,19.0,39,0.00,,,0.00,0.0,meteobridge,2017-03-23 05:47:00,
2017-03-23 01:52:00,23.7,2.8,30.47,NNW,328,15.0,16.0,40,0.00,,,0.00,0.0,meteobridge,2017-03-23 05:52:00,
2017-03-23 01:57:00,23.7,3.4,30.48,NNW,337,11.0,16.0,41,0.00,,,0.00,0.0,meteobridge,2017-03-23 05:57:00,
2017-03-23 02:02:00,23.8,3.5,30.48,NNW,329,12.0,19.0,41,0.00,,CLR,0.00,,VWS V15.00,2017-03-23 06:02:00,
2017-03-23 02:07:00,23.7,3.4,30.48,WNW,299,11.0,17.0,41,0.00,,,0.00,0.0,meteobridge,2017-03-23 06:07:00,
2017-03-23 02:12:00,23.7,3.4,30.48,NW,312,14.1,20.0,41,0.00,,,0.00,0.0,meteobridge,2017-03-23 06:12:00,
2017-03-23 02:17:00,23.7,4.0,30.48,NW,317,12.0,19.0,42,0.00,,CLR,0.00,,VWS V15.00,2017-03-23 06:17:00,
2017-03-23 02:22:00,23.7,3.9,30.47,NW,308,8.1,15.0,42,0.00,,,0.00,0.0,meteobridge,2017-03-23 06:22:00,
2017-03-23 02:27:00,23.7,4.5,30.47,NW,315,12.1,14.0,43,0.00,,,0.00,0.0,meteobridge,2017-03-23 06:27:00,
2017-03-23 02:33:00,23.7,4.5,30.47,NNW,336,11.0,11.0,43,0.00,,,0.00,0.0,meteobridge,2017-03-23 06:33:00,
2017-03-23 02:40:00,-999.9,-99.9,30.48,NW,318,10.1,-999.0,-999,0.00,,,0.00,,meteobridge,2017-03-23 06:40:00,
2017-03-23 02:46:00,-999.9,-99.9,30.48,NW,315,8.1,-999.0,-999,0.00,,,0.00,,meteobridge,2017-03-23 06:46:00,
2017-03-23 02:52:00,23.9,5.2,30.48,North,349,8.0,8.0,44,0.00,,CLR,0.00,,VWS V15.00,2017-03-23 06:52:00,
2017-03-23 02:59:00,23.9,5.2,30.48,NW,304,12.1,12.1,44,0.00,,,0.00,0.0,meteobridge,2017-03-23 06:59:00,
2017-03-23 03:05:00,-999.9,-99.9,30.48,NW,321,11.0,-999.0,-999,0.00,,,0.00,,meteobridge,2017-03-23 07:05:00,
2017-03-23 03:10:00,23.8,5.1,30.49,NW,306,11.0,11.0,44,0.00,,CLR,0.00,,VWS V15.00,2017-03-23 07:10:00,
2017-03-23 03:15:00,23.8,5.1,30.48,NW,312,12.0,15.0,44,0.00,,CLR,0.00,,VWS V15.00,2017-03-23 07:15:00,
2017-03-23 03:20:00,23.7,5.0,30.49,NW,321,8.1,15.0,44,0.00,,,0.00,0.0,meteobridge,2017-03-23 07:20:00,
2017-03-23 03:25:00,23.8,5.1,30.49,NNW,339,9.0,13.0,44,0.00,,CLR,0.00,,VWS V15.00,2017-03-23 07:25:00,
2017-03-23 03:30:00,23.7,5.5,30.49,NW,319,8.9,14.0,45,0.00,,,0.00,0.0,meteobridge,2017-03-23 07:30:00,
2017-03-23 03:35:00,23.7,5.0,30.49,WNW,293,8.9,13.0,44,0.00,,,0.00,0.0,meteobridge,2017-03-23 07:35:00,
2017-03-23 03:40:00,23.8,5.6,30.49,WNW,303,9.0,12.0,45,0.00,,CLR,0.00,,VWS V15.00,2017-03-23 07:40:00,
2017-03-23 03:45:00,23.7,5.5,30.49,NW,312,4.9,9.0,45,0.00,,,0.00,0.0,meteobridge,2017-03-23 07:45:00,
2017-03-23 03:50:00,23.7,5.5,30.49,NNW,330,11.0,13.0,45,0.00,,,0.00,0.0,meteobridge,2017-03-23 07:50:00,
2017-03-23 03:55:00,23.7,5.5,30.49,NW,319,6.0,10.0,45,0.00,,,0.00,0.0,meteobridge,2017-03-23 07:55:00,
2017-03-23 04:00:00,23.7,5.9,30.49,WNW,299,13.0,13.0,46,0.00,,,0.00,0.0,meteobridge,2017-03-23 08:00:00,
2017-03-23 04:05:00,23.7,5.5,30.49,NNW,331,6.9,13.0,45,0.00,,,0.00,0.0,meteobridge,2017-03-23 08:05:00,
2017-03-23 04:10:00,23.7,5.9,30.49,NW,319,8.1,11.0,46,0.00,,,0.00,0.0,meteobridge,2017-03-23 08:10:00,
2017-03-23 04:15:00,23.7,5.9,30.49,NW,306,6.9,13.0,46,0.00,,,0.00,0.0,meteobridge,2017-03-23 08:15:00,
2017-03-23 04:20:00,23.7,5.9,30.49,NW,320,10.1,13.0,46,0.00,,,0.00,0.0,meteobridge,2017-03-23 08:20:00,
2017-03-23 04:25:00,23.7,5.9,30.50,NW,316,13.0,16.0,46,0.00,,,0.00,0.0,meteobridge,2017-03-23 08:25:00,
2017-03-23 04:30:00,23.5,5.7,30.49,NW,313,8.1,13.0,46,0.00,,,0.00,0.0,meteobridge,2017-03-23 08:30:00,
2017-03-23 04:35:00,23.7,6.4,30.50,NNW,334,6.0,10.0,47,0.00,,,0.00,0.0,meteobridge,2017-03-23 08:35:00,
2017-03-23 04:40:00,23.7,6.4,30.50,NNW,344,12.1,16.0,47,0.00,,,0.00,0.0,meteobridge,2017-03-23 08:40:00,
2017-03-23 04:45:00,23.7,6.4,30.50,NW,322,12.1,13.0,47,0.00,,,0.00,0.0,meteobridge,2017-03-23 08:45:00,
2017-03-23 04:50:00,23.7,5.9,30.50,NW,316,6.0,14.0,46,0.00,,,0.00,0.0,meteobridge,2017-03-23 08:50:00,
2017-03-23 04:55:00,23.7,6.4,30.51,NNW,327,8.9,13.0,47,0.00,,,0.00,0.0,meteobridge,2017-03-23 08:55:00,
2017-03-23 05:00:00,23.7,6.4,30.51,NW,325,10.1,12.0,47,0.00,,,0.00,0.0,meteobridge,2017-03-23 09:00:00,
2017-03-23 05:05:00,23.7,6.4,30.51,NNW,330,8.1,11.0,47,0.00,,,0.00,0.0,meteobridge,2017-03-23 09:05:00,
2017-03-23 05:10:00,23.7,6.4,30.51,NW,320,8.1,15.0,47,0.00,,,0.00,0.0,meteobridge,2017-03-23 09:10:00,
2017-03-23 05:15:00,23.7,6.4,30.52,NW,324,6.9,9.0,47,0.00,,,0.00,0.0,meteobridge,2017-03-23 09:15:00,
2017-03-23 05:20:00,23.7,6.4,30.52,NW,316,8.9,13.0,47,0.00,,,0.00,0.0,meteobridge,2017-03-23 09:20:00,
2017-03-23 05:25:00,23.7,6.4,30.52,NW,325,8.1,11.0,47,0.00,,,0.00,0.0,meteobridge,2017-03-23 09:25:00,
2017-03-23 05:30:00,23.7,6.4,30.52,NW,320,6.0,12.0,47,0.00,,,0.00,0.0,meteobridge,2017-03-23 09:30:00,
2017-03-23 05:35:00,23.7,6.4,30.52,NW,316,6.0,12.0,47,0.00,,,0.00,0.0,meteobridge,2017-03-23 09:35:00,
2017-03-23 05:40:00,23.9,6.6,30.53,NW,325,4.9,13.0,47,0.00,,,0.00,0.0,meteobridge,2017-03-23 09:40:00,
2017-03-23 05:46:00,23.9,6.1,30.53,NNW,333,4.9,13.0,46,0.00,,,0.00,0.0,meteobridge,2017-03-23 09:46:00,
2017-03-23 05:51:00,24.1,6.3,30.53,NW,304,8.1,13.0,46,0.00,,,0.00,0.0,meteobridge,2017-03-23 09:51:00,
2017-03-23 05:56:00,23.9,5.7,30.53,NW,305,8.9,15.0,45,0.00,,,0.00,0.0,meteobridge,2017-03-23 09:56:00,
2017-03-23 06:01:00,24.0,6.2,30.53,NNW,344,12.0,15.0,46,0.00,,CLR,0.00,,VWS V15.00,2017-03-23 10:01:00,
2017-03-23 06:06:00,24.1,6.3,30.54,NW,307,5.0,9.0,46,0.00,,CLR,0.00,,VWS V15.00,2017-03-23 10:06:00,
2017-03-23 06:11:00,24.2,6.4,30.54,NW,320,11.0,13.0,46,0.00,,CLR,0.00,,VWS V15.00,2017-03-23 10:11:00,
2017-03-23 06:16:00,24.1,6.8,30.54,WNW,297,4.0,7.0,47,0.00,,CLR,0.00,,VWS V15.00,2017-03-23 10:16:00,
2017-03-23 06:21:00,24.2,6.9,30.54,NW,312,7.0,10.0,47,0.00,,CLR,0.00,,VWS V15.00,2017-03-23 10:21:00,
2017-03-23 06:26:00,24.3,7.0,30.55,North,354,4.0,5.0,47,0.00,,CLR,0.00,,VWS V15.00,2017-03-23 10:26:00,
2017-03-23 06:31:00,24.2,6.4,30.55,NW,310,5.0,7.0,46,0.00,,CLR,0.00,,VWS V15.00,2017-03-23 10:31:00,
2017-03-23 06:36:00,24.2,6.9,30.55,NNW,335,6.0,7.0,47,0.00,,CLR,0.00,,VWS V15.00,2017-03-23 10:36:00,
2017-03-23 06:41:00,24.2,6.9,30.56,NW,313,5.0,9.0,47,0.00,,CLR,0.00,,VWS V15.00,2017-03-23 10:41:00,
2017-03-23 06:46:00,24.3,7.0,30.56,North,354,6.0,12.0,47,0.00,,,0.00,0.0,meteobridge,2017-03-23 10:46:00,
2017-03-23 06:51:00,24.3,7.0,30.56,NW,314,8.1,10.0,47,0.00,,,0.00,0.0,meteobridge,2017-03-23 10:51:00,
2017-03-23 06:56:00,24.3,7.0,30.56,NNW,344,9.0,9.0,47,0.00,,CLR,0.00,,VWS V15.00,2017-03-23 10:56:00,
2017-03-23 07:01:00,24.3,7.0,30.56,NNW,328,12.0,12.0,47,0.00,,CLR,0.00,,VWS V15.00,2017-03-23 11:01:00,
2017-03-23 07:06:00,24.3,6.5,30.56,NW,320,10.0,11.0,46,0.00,,CLR,0.00,,VWS V15.00,2017-03-23 11:06:00,
2017-03-23 07:11:00,24.4,7.1,30.57,WNW,303,9.0,10.0,47,0.00,,CLR,0.00,,VWS V15.00,2017-03-23 11:11:00,
2017-03-23 07:16:00,24.5,7.2,30.57,NNW,339,6.0,9.0,47,0.00,,CLR,0.00,,VWS V15.00,2017-03-23 11:16:00,
2017-03-23 07:21:00,24.4,7.1,30.57,NNW,344,8.0,8.0,47,0.00,,CLR,0.00,,VWS V15.00,2017-03-23 11:21:00,
2017-03-23 07:26:00,24.3,7.0,30.58,WNW,292,8.9,9.0,47,0.00,,,0.00,56.0,meteobridge,2017-03-23 11:26:00,
2017-03-23 07:31:00,24.4,6.6,30.58,NNE,15,4.0,12.0,46,0.00,,,0.00,70.0,meteobridge,2017-03-23 11:31:00,
2017-03-23 07:36:00,24.3,6.5,30.58,NW,317,7.0,11.0,46,0.00,,CLR,0.00,,VWS V15.00,2017-03-23 11:36:00,
2017-03-23 07:41:00,24.4,6.6,30.58,NNW,344,6.0,11.0,46,0.00,,,0.00,105.0,meteobridge,2017-03-23 11:41:00,
2017-03-23 07:46:00,24.6,6.8,30.58,NW,325,7.0,9.0,46,0.00,,CLR,0.00,,VWS V15.00,2017-03-23 11:46:00,
2017-03-23 07:51:00,24.5,6.7,30.58,NNW,329,10.0,12.0,46,0.00,,CLR,0.00,,VWS V15.00,2017-03-23 11:51:00,
2017-03-23 07:56:00,24.5,6.2,30.59,NNW,331,9.0,12.0,45,0.00,,CLR,0.00,,VWS V15.00,2017-03-23 11:56:00,
2017-03-23 08:01:00,24.7,6.9,30.59,NNW,344,6.0,10.0,46,0.00,,CLR,0.00,,VWS V15.00,2017-03-23 12:01:00,
2017-03-23 08:06:00,25.0,6.6,30.59,NW,312,6.0,9.0,45,0.00,,,0.00,197.0,meteobridge,2017-03-23 12:06:00,
2017-03-23 08:11:00,24.8,5.9,30.59,North,349,6.9,11.0,44,0.00,,,0.00,216.0,meteobridge,2017-03-23 12:11:00,
2017-03-23 08:16:00,24.6,5.9,30.60,NNW,336,8.1,11.0,44,0.00,,,0.00,234.0,meteobridge,2017-03-23 12:16:00,
2017-03-23 08:21:00,25.0,6.1,30.60,NNW,327,8.9,11.0,44,0.00,,,0.00,250.0,meteobridge,2017-03-23 12:21:00,
2017-03-23 08:26:00,25.2,5.7,30.60,NNW,335,8.9,12.0,43,0.00,,,0.00,269.0,meteobridge,2017-03-23 12:26:00,
2017-03-23 08:31:00,25.3,5.4,30.60,NW,315,12.1,12.1,42,0.00,,,0.00,285.0,meteobridge,2017-03-23 12:31:00,
2017-03-23 08:36:00,25.5,5.0,30.60,NNW,329,11.0,11.0,41,0.00,,,0.00,301.0,meteobridge,2017-03-23 12:36:00,
2017-03-23 08:41:00,25.3,5.0,30.60,WNW,300,8.1,11.0,41,0.00,,,0.00,318.0,meteobridge,2017-03-23 12:41:00,
2017-03-23 08:46:00,25.5,3.9,30.60,NW,326,8.9,14.0,39,0.00,,,0.00,336.0,meteobridge,2017-03-23 12:46:00,
2017-03-23 08:51:00,26.1,4.5,30.60,WNW,301,8.9,10.0,39,0.00,,,0.00,353.0,meteobridge,2017-03-23 12:51:00,
2017-03-23 08:56:00,26.4,3.7,30.60,NNW,344,10.1,12.0,37,0.00,,,0.00,369.0,meteobridge,2017-03-23 12:56:00,
2017-03-23 09:01:00,26.1,3.9,30.60,NW,319,10.1,13.0,38,0.00,,,0.00,385.0,meteobridge,2017-03-23 13:01:00,
2017-03-23 09:06:00,26.2,2.8,30.60,NNW,332,6.0,15.0,36,0.00,,,0.00,401.0,meteobridge,2017-03-23 13:06:00,
2017-03-23 09:11:00,27.0,4.1,30.60,NNW,329,2.9,11.0,37,0.00,,,0.00,417.0,meteobridge,2017-03-23 13:11:00,
2017-03-23 09:16:00,27.9,5.0,30.60,North,0,4.0,6.0,37,0.00,,,0.00,432.0,meteobridge,2017-03-23 13:16:00,
2017-03-23 09:21:00,27.3,3.2,30.60,NNE,24,4.9,8.0,35,0.00,,,0.00,446.0,meteobridge,2017-03-23 13:21:00,
2017-03-23 09:26:00,27.9,3.7,30.61,WSW,257,2.0,8.0,35,0.00,,,0.00,459.0,meteobridge,2017-03-23 13:26:00,
2017-03-23 09:31:00,27.7,3.6,30.61,NNW,344,8.1,9.0,35,0.00,,,0.00,476.0,meteobridge,2017-03-23 13:31:00,
2017-03-23 09:36:00,27.0,2.3,30.61,NNW,339,8.1,11.0,34,0.00,,,0.00,492.0,meteobridge,2017-03-23 13:36:00,
2017-03-23 09:41:00,27.3,1.9,30.61,NW,322,11.0,13.0,33,0.00,,,0.00,506.0,meteobridge,2017-03-23 13:41:00,
2017-03-23 09:46:00,27.0,2.3,30.61,NNW,329,10.1,11.0,34,0.00,,,0.00,520.0,meteobridge,2017-03-23 13:46:00,
2017-03-23 09:51:00,27.1,3.0,30.61,NW,318,13.0,13.0,35,0.00,,,0.00,534.0,meteobridge,2017-03-23 13:51:00,
2017-03-23 09:56:00,27.1,1.8,30.61,NNW,339,4.9,11.0,33,0.00,,,0.00,545.0,meteobridge,2017-03-23 13:56:00,
2017-03-23 10:01:00,27.7,3.6,30.61,NNW,335,4.9,10.0,35,0.00,,,0.00,559.0,meteobridge,2017-03-23 14:01:00,
2017-03-23 10:06:00,28.2,2.8,30.61,NW,304,6.9,11.0,33,0.00,,,0.00,571.0,meteobridge,2017-03-23 14:06:00,
2017-03-23 10:11:00,27.9,2.5,30.61,NW,316,6.9,10.0,33,0.00,,,0.00,584.0,meteobridge,2017-03-23 14:11:00,
2017-03-23 10:16:00,28.2,2.8,30.61,WNW,303,4.0,9.0,33,0.00,,,0.00,598.0,meteobridge,2017-03-23 14:16:00,
2017-03-23 10:21:00,28.9,2.1,30.61,WNW,287,6.0,8.0,31,0.00,,,0.00,608.0,meteobridge,2017-03-23 14:21:00,
2017-03-23 10:26:00,28.8,0.5,30.61,WNW,290,6.9,15.0,29,0.00,,,0.00,622.0,meteobridge,2017-03-23 14:26:00,
2017-03-23 10:31:00,28.6,2.5,30.61,WNW,290,6.0,10.0,32,0.00,,,0.00,633.0,meteobridge,2017-03-23 14:31:00,
2017-03-23 10:36:00,29.5,1.9,30.61,WNW,298,15.0,15.0,30,0.00,,,0.00,643.0,meteobridge,2017-03-23 14:36:00,
2017-03-23 10:41:00,29.3,2.5,30.61,NNW,334,12.1,14.0,31,0.00,,,0.00,656.0,meteobridge,2017-03-23 14:41:00,
2017-03-23 10:47:00,29.3,1.8,30.61,NNE,17,6.9,12.0,30,0.00,,,0.00,664.0,meteobridge,2017-03-23 14:47:00,
2017-03-23 10:52:00,29.7,1.2,30.61,NW,304,6.0,14.0,29,0.00,,,0.00,677.0,meteobridge,2017-03-23 14:52:00,
2017-03-23 10:57:00,29.8,1.4,30.61,NW,308,6.9,12.0,29,0.00,,,0.00,687.0,meteobridge,2017-03-23 14:57:00,
2017-03-23 11:02:00,30.4,1.2,30.61,North,5,2.9,14.0,28,0.00,,,0.00,696.0,meteobridge,2017-03-23 15:02:00,
2017-03-23 11:07:00,30.6,2.1,30.61,NW,320,5.0,7.0,29,0.00,,CLR,0.00,,VWS V15.00,2017-03-23 15:07:00,
2017-03-23 11:12:00,31.1,0.2,30.61,WNW,300,4.0,12.0,26,0.00,,CLR,0.00,,VWS V15.00,2017-03-23 15:12:00,
2017-03-23 11:17:00,31.2,1.9,30.61,NNW,344,4.0,8.0,28,0.00,,CLR,0.00,,VWS V15.00,2017-03-23 15:17:00,
2017-03-23 11:22:00,31.4,1.3,30.61,NW,306,9.0,9.0,27,0.00,,CLR,0.00,,VWS V15.00,2017-03-23 15:22:00,
2017-03-23 11:27:00,31.1,0.1,30.61,NW,314,6.0,13.0,26,0.00,,,0.00,737.0,meteobridge,2017-03-23 15:27:00,
2017-03-23 11:32:00,31.5,-0.3,30.61,North,5,12.0,12.0,25,0.00,,CLR,0.00,,VWS V15.00,2017-03-23 15:32:00,
2017-03-23 11:33:00,31.6,0.7,30.61,North,349,11.0,12.0,26,0.00,,,0.00,751.0,meteobridge,2017-03-23 15:33:00,
2017-03-23 11:38:00,32.0,1.0,30.60,WNW,292,4.9,10.0,26,0.00,,,0.00,754.0,meteobridge,2017-03-23 15:38:00,
2017-03-23 11:43:00,32.0,-0.8,30.60,NNW,336,11.0,12.0,24,0.00,,,0.00,761.0,meteobridge,2017-03-23 15:43:00,
2017-03-23 11:48:00,31.8,0.0,30.60,North,358,8.1,13.0,25,0.00,,,0.00,763.0,meteobridge,2017-03-23 15:48:00,
2017-03-23 11:53:00,31.5,-0.4,30.60,NW,304,8.9,15.0,25,0.00,,,0.00,772.0,meteobridge,2017-03-23 15:53:00,